Location: Albany
(35.0000°S, 118.0000°E)
Time: 04:40:15
(UTC-05:00)

JAS-1B - Visible Passes

Search period start: 29 November 2014 00:00
Search period end: 09 December 2014 00:00
Orbit: 911 x 1744 km, 99.1° (Epoch: 27 November)

Date Brightness Start Highest point End Pass type
(mag) Time Alt. Az. Time Alt. Az. Time Alt. Az.
29 Nov 8.8 10:48:15 32° ENE 10:51:13 40° ESE 10:58:37 10° S visible
29 Nov 8.2 12:40:31 45° WNW 12:41:29 46° W 12:49:27 10° SSW visible
30 Nov 8.4 11:07:40 42° ENE 11:10:09 52° ESE 11:17:55 10° S visible
30 Nov 8.6 12:59:55 34° WNW 13:00:38 34° W 13:08:02 10° SW visible
01 Dec 9.9 09:36:29 10° E 09:39:42 13° ESE 09:42:45 10° SE visible
01 Dec 8.0 11:27:04 54° NE 11:29:08 68° ESE 11:37:07 10° S visible
01 Dec 8.9 13:19:20 25° W 13:19:48 25° W 13:26:20 10° SW visible
02 Dec 9.6 09:54:13 12° E 09:58:24 18° ESE 10:03:15 10° SSE visible
02 Dec 7.8 11:46:29 64° NNE 11:48:10 88° ESE 11:56:12 10° SSW visible
02 Dec 9.2 13:38:44 17° W 13:39:02 17° W 13:44:09 10° SW visible
03 Dec 9.3 10:13:37 19° E 10:17:11 24° ESE 10:23:07 10° SSE visible
03 Dec 7.8 12:05:53 63° NNW 12:07:12 71° WNW 12:15:10 10° SSW visible
03 Dec 9.5 13:58:09 11° W 13:58:19 11° W 14:00:25 10° WSW visible
04 Dec 8.9 10:33:02 26° E 10:36:03 32° ESE 10:42:41 10° S visible
04 Dec 8.0 12:25:18 51° WNW 12:26:16 53° W 12:34:00 10° SSW visible
05 Dec 8.5 10:52:26 35° ENE 10:54:58 43° ESE 11:02:05 10° S visible
05 Dec 8.3 12:44:42 39° WNW 12:45:22 39° W 12:52:40 10° SSW visible
06 Dec 8.1 11:11:51 47° ENE 11:13:56 57° ESE 11:21:21 10° S visible
06 Dec 8.7 13:04:07 29° WNW 13:04:29 29° W 13:11:07 10° SW visible
07 Dec 9.7 09:39:49 10° E 09:43:15 13° ESE 09:46:29 10° SE visible
07 Dec 7.8 11:31:16 60° NE 11:32:56 75° ESE 11:40:29 10° S visible
07 Dec 9.0 13:23:31 20° W 13:23:40 20° W 13:29:12 10° SW visible
08 Dec 9.4 09:58:24 14° E 10:01:59 19° ESE 10:06:48 10° SSE visible
08 Dec 7.6 11:50:40 68° N 11:51:57 83° WNW 11:59:31 10° SSW visible
08 Dec 9.4 13:42:56 13° W 13:42:56 13° W 13:46:28 10° WSW visible
